Tracking 28790 objects as of 19-Apr-2024
HD Live streaming from Space Station
objects crossing your sky now

TITAN 3C TRANSTAGE DEB

Track TITAN 3C TRANSTAGE DEB now!
10-day predictions


NORAD ID: 1642
Int'l Code: 1965-082D
Perigee: 615.2 km
Apogee: 649.1 km
Inclination: 32.1 °
Period: 97.2 minutes
Semi major axis: 7003 km
RCS: 2.2943 m2 (large)
Launch date: October 15, 1965
Source: United States (US)
Launch site: AIR FORCE EASTERN TEST RANGE (AFETR)

Note: This is SATELLITE DEBRIS
Your satellite tracking list
Your tracking list is empty




NASA's NSSDC Master Catalog

Two Line Element Set (TLE):
1 01642U 65082D   24109.00176869  .00003377  00000-0  41598-3 0  9997
2 01642  32.0949 338.5856 0024225 154.5349 205.6499 14.81375974120171
Source of the keplerian elements: AFSPC